QPF
0.05 0.07 0.08 0.05 0.03 0.03 0.04 0.04 0.03 0.04 0.07 0.12 0.16 0.13 0.11 0.09 0.08 0.06 0.05 0.04 0.03 0.03 0.03 0.04 0.05 0.05 0.05 0.03 0.04 0.04 0.04 0.04 0.04 0.05 0.06 0.07 0.07 0.08 0.08 0.09 0.06 0.04 0.06
0.02 0.04 0.07 0.03 0.02 0.02 0.03 0.03 0.03 0.05 0.15 0.22 0.26 0.21 0.15 0.12 0.09 0.07 0.06 0.04 0.04 0.04 0.03 0.03 0.03 0.03 0.03 0.03 0.04 0.04 0.04 0.04 0.05 0.07 0.08 0.07 0.06 0.08 0.07 0.05 0.04 0.04 0.05
0.01 0.02 0.04 0.03 0.01 0.01 0.02 0.02 0.04 0.06 0.12 0.17 0.19 0.18 0.15 0.13 0.10 0.07 0.06 0.05 0.04 0.03 0.02 0.02 0.02 0.02 0.02 0.02 0.03 0.03 0.03 0.03 0.04 0.05 0.04 0.03 0.04 0.06 0.06 0.06 0.05 0.04 0.05
0.00 0.01 0.02 0.02 0.01 0.01 0.01 0.01 0.02 0.03 0.06 0.07 0.09 0.11 0.09 0.09 0.08 0.06 0.05 0.05 0.04 0.03 0.03 0.02 0.01 0.02 0.02 0.02 0.03 0.03 0.03 0.02 0.02 0.02 0.01 0.02 0.02 0.05 0.06 0.06 0.05 0.03 0.04
0.00 0.01 0.01 0.01 0.00 0.01 0.01 0.01 0.01 0.02 0.02 0.04 0.05 0.05 0.05 0.05 0.06 0.05 0.05 0.04 0.04 0.02 0.02 0.01 0.01 0.01 0.01 0.02 0.03 0.04 0.04 0.03 0.02 0.02 0.00 0.00 0.01 0.04 0.05 0.05 0.04 0.04 0.04
0.00 0.00 0.01 0.01 0.00 0.00 0.01 0.01 0.01 0.01 0.01 0.01 0.02 0.02 0.03 0.03 0.04 0.04 0.03 0.03 0.03 0.02 0.01 0.01 0.01 0.01 0.02 0.02 0.02 0.03 0.03 0.03 0.01 0.01 0.00 0.00 0.01 0.04 0.05 0.04 0.04 0.04 0.04
0.00 0.00 0.01 0.01 0.00 0.00 0.01 0.01 0.01 0.01 0.01 0.00 0.01 0.01 0.02 0.02 0.02 0.02 0.02 0.02 0.03 0.02 0.01 0.01 0.01 0.02 0.02 0.02 0.02 0.03 0.03 0.02 0.01 0.00 0.00 0.00 0.01 0.04 0.04 0.03 0.04 0.04 0.03
0.00 0.00 0.01 0.01 0.01 0.01 0.01 0.01 0.01 0.00 0.01 0.01 0.01 0.01 0.01 0.01 0.01 0.01 0.01 0.01 0.02 0.01 0.01 0.01 0.01 0.02 0.03 0.04 0.04 0.03 0.03 0.01 0.00 0.01 0.01 0.00 0.02 0.03 0.03 0.03 0.02 0.02 0.02
0.00 0.00 0.01 0.01 0.01 0.01 0.01 0.01 0.01 0.01 0.01 0.01 0.01 0.01 0.01 0.01 0.01 0.01 0.01 0.01 0.01 0.01 0.01 0.02 0.02 0.02 0.03 0.04 0.04 0.04 0.03 0.01 0.00 0.00 0.00 0.00 0.02 0.02 0.02 0.02 0.01 0.02 0.01
0.00 0.00 0.00 0.00 0.00 0.00 0.01 0.01 0.01 0.01 0.01 0.01 0.01 0.01 0.01 0.01 0.01 0.01 0.00 0.01 0.01 0.01 0.02 0.02 0.03 0.03 0.03 0.03 0.03 0.05 0.05 0.02 0.01 0.00 0.01 0.01 0.02 0.02 0.02 0.02 0.01 0.02 0.01
0.01 0.01 0.00 0.00 0.00 0.00 0.00 0.01 0.01 0.01 0.01 0.01 0.01 0.01 0.00 0.00 0.00 0.01 0.00 0.01 0.01 0.01 0.02 0.02 0.02 0.03 0.02 0.03 0.03 0.04 0.04 0.01 0.01 0.00 0.01 0.02 0.01 0.02 0.02 0.02 0.02 0.01 0.01
0.01 0.00 0.00 0.00 0.00 0.00 0.00 0.00 0.00 0.00 0.00 0.00 0.00 0.00 0.00 0.00 0.00 0.00 0.00 0.01 0.01 0.01 0.02 0.02 0.02 0.02 0.01 0.01 0.02 0.03 0.01 0.01 0.01 0.01 0.01 0.01 0.01 0.02 0.02 0.02 0.01 0.02 0.02
0.00 0.00 0.00 0.00 0.00 0.00 0.00 0.00 0.00 0.00 0.00 0.00 0.00 0.00 0.00 0.00 0.00 0.00 0.00 0.01 0.01 0.01 0.01 0.01 0.01 0.01 0.00 0.01 0.01 0.02 0.01 0.01 0.00 0.00 0.01 0.02 0.02 0.02 0.02 0.02 0.02 0.02 0.02
0.00 0.00 0.00 0.00 0.00 0.00 0.00 0.00 0.00 0.00 0.00 0.00 0.00 0.00 0.00 0.00 0.00 0.00 0.00 0.00 0.00 0.00 0.00 0.00 0.01 0.01 0.01 0.02 0.03 0.03 0.02 0.02 0.01 0.00 0.01 0.02 0.02 0.02 0.03 0.03 0.03 0.02 0.01
0.00 0.00 0.00 0.00 0.00 0.00 0.00 0.00 0.00 0.00 0.00 0.00 0.00 0.00 0.00 0.00 0.00 0.00 0.00 0.00 0.00 0.01 0.01 0.01 0.01 0.01 0.02 0.03 0.03 0.02 0.02 0.01 0.01 0.00 0.01 0.02 0.02 0.02 0.03 0.03 0.03 0.02 0.02
0.00 0.00 0.01 0.00 0.00 0.00 0.00 0.00 0.00 0.00 0.00 0.00 0.00 0.00 0.00 0.00 0.01 0.01 0.01 0.00 0.00 0.01 0.01 0.01 0.01 0.02 0.03 0.02 0.02 0.01 0.01 0.02 0.00 0.00 0.01 0.01 0.02 0.02 0.03 0.03 0.03 0.02 0.03
0.01 0.01 0.01 0.01 0.01 0.01 0.01 0.01 0.01 0.00 0.00 0.00 0.00 0.00 0.01 0.00 0.01 0.01 0.01 0.01 0.01 0.01 0.01 0.01 0.01 0.01 0.02 0.02 0.02 0.01 0.01 0.02 0.02 0.01 0.00 0.00 0.01 0.02 0.03 0.04 0.04 0.03 0.03
0.01 0.01 0.01 0.01 0.01 0.01 0.02 0.02 0.03 0.02 0.01 0.01 0.00 0.01 0.01 0.02 0.02 0.01 0.01 0.02 0.01 0.01 0.01 0.02 0.03 0.02 0.02 0.03 0.03 0.03 0.03 0.03 0.02 0.01 0.00 0.00 0.00 0.01 0.02 0.03 0.03 0.02 0.02
0.01 0.01 0.01 0.02 0.02 0.02 0.03 0.04 0.04 0.04 0.03 0.02 0.01 0.00 0.01 0.02 0.02 0.02 0.02 0.02 0.01 0.02 0.02 0.03 0.03 0.04 0.03 0.05 0.04 0.04 0.04 0.03 0.03 0.02 0.01 0.00 0.00 0.00 0.01 0.02 0.03 0.02 0.02
0.01 0.01 0.02 0.03 0.02 0.01 0.03 0.07 0.07 0.06 0.05 0.03 0.03 0.03 0.03 0.03 0.03 0.02 0.02 0.03 0.03 0.03 0.02 0.02 0.03 0.03 0.03 0.04 0.05 0.04 0.04 0.04 0.03 0.02 0.01 0.01 0.00 0.01 0.01 0.01 0.01 0.02 0.02
0.02 0.01 0.02 0.02 0.03 0.02 0.03 0.05 0.05 0.04 0.05 0.06 0.05 0.04 0.04 0.05 0.05 0.05 0.05 0.05 0.06 0.03 0.02 0.01 0.01 0.03 0.04 0.04 0.04 0.04 0.04 0.04 0.03 0.02 0.02 0.01 0.01 0.01 0.01 0.01 0.01 0.01 0.01
0.05 0.02 0.03 0.04 0.04 0.04 0.06 0.08 0.08 0.08 0.10 0.09 0.08 0.08 0.09 0.09 0.08 0.07 0.08 0.07 0.06 0.04 0.02 0.01 0.01 0.02 0.03 0.04 0.04 0.03 0.03 0.03 0.03 0.03 0.04 0.03 0.02 0.02 0.01 0.02 0.02 0.01 0.01
0.05 0.03 0.04 0.04 0.04 0.06 0.09 0.09 0.07 0.09 0.10 0.08 0.08 0.10 0.09 0.08 0.08 0.09 0.09 0.09 0.07 0.05 0.05 0.04 0.02 0.01 0.02 0.03 0.03 0.02 0.01 0.01 0.01 0.01 0.02 0.02 0.01 0.01 0.01 0.01 0.01 0.01 0.01
0.03 0.04 0.05 0.04 0.04 0.05 0.05 0.06 0.06 0.07 0.07 0.08 0.11 0.10 0.07 0.05 0.05 0.06 0.08 0.09 0.07 0.06 0.05 0.06 0.04 0.02 0.02 0.02 0.02 0.01 0.01 0.01 0.01 0.01 0.01 0.01 0.01 0.01 0.01 0.01 0.01 0.01 0.01
0.04 0.04 0.05 0.05 0.04 0.04 0.04 0.04 0.04 0.06 0.08 0.10 0.12 0.09 0.05 0.04 0.06 0.06 0.06 0.07 0.06 0.05 0.03 0.04 0.04 0.03 0.02 0.02 0.02 0.01 0.02 0.02 0.01 0.01 0.01 0.01 0.01 0.01 0.01 0.01 0.01 0.01 0.01
0.04 0.05 0.05 0.06 0.05 0.04 0.02 0.02 0.03 0.04 0.05 0.05 0.05 0.05 0.04 0.05 0.06 0.06 0.06 0.07 0.07 0.05 0.03 0.02 0.03 0.03 0.02 0.02 0.02 0.02 0.02 0.02 0.02 0.02 0.01 0.01 0.01 0.01 0.01 0.01 0.01 0.01 0.01
MSLP
1011.89 1011.43 1011.11 1010.98 1011.00 1011.14 1011.33 1011.50 1011.62 1011.67 1011.66 1011.63 1011.62 1011.67 1011.79 1011.97 1012.21 1012.46 1012.69 1012.87 1013.01 1013.12 1013.21 1013.31 1013.44 1013.60 1013.81 1014.03 1014.25 1014.44 1014.60 1014.73 1014.83 1014.92 1015.03 1015.18 1015.36 1015.59 1015.85 1016.13 1016.42 1016.70 1016.98
1011.85 1011.49 1011.28 1011.22 1011.31 1011.48 1011.69 1011.86 1011.98 1012.03 1012.03 1012.02 1012.05 1012.13 1012.29 1012.51 1012.77 1013.02 1013.24 1013.40 1013.51 1013.57 1013.63 1013.70 1013.81 1013.96 1014.14 1014.35 1014.55 1014.72 1014.87 1014.98 1015.08 1015.18 1015.30 1015.45 1015.65 1015.89 1016.15 1016.43 1016.72 1017.01 1017.29
1011.73 1011.47 1011.34 1011.36 1011.51 1011.73 1011.97 1012.17 1012.30 1012.37 1012.40 1012.43 1012.48 1012.60 1012.79 1013.02 1013.27 1013.51 1013.69 1013.82 1013.89 1013.93 1013.97 1014.02 1014.12 1014.27 1014.45 1014.65 1014.84 1015.02 1015.16 1015.28 1015.38 1015.49 1015.63 1015.79 1016.00 1016.23 1016.49 1016.77 1017.05 1017.34 1017.63
1011.59 1011.42 1011.37 1011.46 1011.66 1011.93 1012.20 1012.44 1012.60 1012.70 1012.76 1012.82 1012.91 1013.05 1013.24 1013.47 1013.70 1013.91 1014.06 1014.16 1014.20 1014.23 1014.26 1014.32 1014.42 1014.58 1014.77 1014.97 1015.17 1015.35 1015.50 1015.63 1015.75 1015.88 1016.02 1016.19 1016.40 1016.62 1016.87 1017.13 1017.41 1017.69 1017.98
1011.50 1011.40 1011.41 1011.57 1011.82 1012.13 1012.44 1012.70 1012.89 1013.02 1013.10 1013.18 1013.29 1013.44 1013.63 1013.85 1014.05 1014.23 1014.35 1014.43 1014.47 1014.49 1014.53 1014.62 1014.74 1014.92 1015.12 1015.34 1015.55 1015.73 1015.89 1016.04 1016.17 1016.31 1016.47 1016.64 1016.84 1017.05 1017.27 1017.51 1017.76 1018.04 1018.33
1011.53 1011.48 1011.55 1011.75 1012.04 1012.37 1012.70 1012.97 1013.18 1013.32 1013.42 1013.51 1013.63 1013.78 1013.96 1014.16 1014.35 1014.50 1014.61 1014.68 1014.72 1014.77 1014.84 1014.95 1015.10 1015.30 1015.52 1015.74 1015.95 1016.14 1016.31 1016.46 1016.61 1016.77 1016.93 1017.11 1017.29 1017.47 1017.66 1017.87 1018.10 1018.35 1018.64
1011.71 1011.70 1011.81 1012.03 1012.34 1012.68 1013.00 1013.27 1013.46 1013.60 1013.70 1013.80 1013.92 1014.07 1014.25 1014.44 1014.62 1014.76 1014.87 1014.95 1015.01 1015.08 1015.18 1015.31 1015.49 1015.70 1015.92 1016.14 1016.35 1016.54 1016.71 1016.87 1017.03 1017.20 1017.37 1017.54 1017.71 1017.87 1018.02 1018.19 1018.38 1018.62 1018.90
1012.03 1012.05 1012.18 1012.42 1012.72 1013.04 1013.34 1013.57 1013.75 1013.87 1013.96 1014.06 1014.18 1014.34 1014.53 1014.72 1014.89 1015.04 1015.16 1015.25 1015.33 1015.42 1015.54 1015.70 1015.88 1016.10 1016.31 1016.52 1016.71 1016.89 1017.05 1017.22 1017.40 1017.58 1017.76 1017.93 1018.08 1018.21 1018.33 1018.46 1018.61 1018.82 1019.08
1012.44 1012.49 1012.63 1012.87 1013.16 1013.44 1013.70 1013.89 1014.02 1014.12 1014.20 1014.31 1014.44 1014.62 1014.82 1015.02 1015.21 1015.36 1015.49 1015.58 1015.68 1015.78 1015.91 1016.07 1016.25 1016.45 1016.64 1016.83 1017.00 1017.17 1017.33 1017.51 1017.69 1017.89 1018.08 1018.25 1018.40 1018.51 1018.60 1018.69 1018.81 1018.97 1019.21
1012.84 1012.92 1013.09 1013.32 1013.59 1013.83 1014.04 1014.19 1014.29 1014.36 1014.45 1014.56 1014.72 1014.92 1015.14 1015.36 1015.56 1015.72 1015.85 1015.95 1016.03 1016.13 1016.25 1016.40 1016.57 1016.74 1016.92 1017.09 1017.24 1017.40 1017.56 1017.74 1017.93 1018.15 1018.35 1018.54 1018.68 1018.79 1018.86 1018.92 1019.00 1019.13 1019.33
1013.17 1013.29 1013.48 1013.72 1013.96 1014.18 1014.35 1014.46 1014.53 1014.60 1014.69 1014.82 1015.01 1015.24 1015.49 1015.73 1015.95 1016.11 1016.23 1016.31 1016.38 1016.46 1016.56 1016.69 1016.84 1017.00 1017.16 1017.31 1017.46 1017.61 1017.77 1017.96 1018.17 1018.39 1018.61 1018.81 1018.96 1019.06 1019.12 1019.17 1019.22 1019.31 1019.48
1013.36 1013.53 1013.76 1014.01 1014.25 1014.45 1014.59 1014.69 1014.75 1014.83 1014.94 1015.10 1015.32 1015.59 1015.86 1016.12 1016.34 1016.49 1016.59 1016.66 1016.71 1016.76 1016.84 1016.96 1017.09 1017.25 1017.40 1017.55 1017.70 1017.86 1018.02 1018.21 1018.43 1018.65 1018.88 1019.08 1019.24 1019.35 1019.42 1019.45 1019.49 1019.56 1019.70
1013.39 1013.62 1013.90 1014.18 1014.43 1014.63 1014.78 1014.87 1014.95 1015.04 1015.18 1015.38 1015.64 1015.93 1016.22 1016.49 1016.70 1016.85 1016.93 1016.97 1017.00 1017.04 1017.10 1017.21 1017.35 1017.52 1017.69 1017.86 1018.02 1018.18 1018.35 1018.54 1018.74 1018.96 1019.18 1019.37 1019.54 1019.65 1019.72 1019.76 1019.80 1019.87 1019.98
1013.27 1013.57 1013.90 1014.22 1014.50 1014.73 1014.89 1015.01 1015.12 1015.24 1015.41 1015.64 1015.92 1016.23 1016.54 1016.81 1017.01 1017.14 1017.21 1017.24 1017.25 1017.29 1017.36 1017.48 1017.64 1017.84 1018.04 1018.23 1018.42 1018.59 1018.76 1018.93 1019.11 1019.30 1019.49 1019.66 1019.81 1019.93 1020.01 1020.07 1020.12 1020.19 1020.30
1013.04 1013.40 1013.79 1014.16 1014.48 1014.74 1014.95 1015.11 1015.25 1015.41 1015.61 1015.87 1016.17 1016.48 1016.79 1017.05 1017.24 1017.37 1017.43 1017.45 1017.48 1017.53 1017.63 1017.78 1017.98 1018.21 1018.45 1018.69 1018.90 1019.08 1019.24 1019.38 1019.52 1019.65 1019.79 1019.93 1020.05 1020.16 1020.25 1020.33 1020.40 1020.49 1020.60
1012.76 1013.17 1013.60 1014.01 1014.38 1014.69 1014.95 1015.15 1015.35 1015.54 1015.77 1016.04 1016.34 1016.65 1016.95 1017.19 1017.38 1017.51 1017.58 1017.62 1017.67 1017.75 1017.89 1018.08 1018.33 1018.61 1018.90 1019.16 1019.40 1019.58 1019.72 1019.83 1019.91 1019.98 1020.05 1020.12 1020.21 1020.30 1020.39 1020.49 1020.59 1020.70 1020.82
1012.48 1012.91 1013.37 1013.81 1014.23 1014.59 1014.89 1015.16 1015.40 1015.64 1015.89 1016.16 1016.45 1016.74 1017.02 1017.25 1017.44 1017.57 1017.67 1017.75 1017.84 1017.96 1018.15 1018.39 1018.67 1018.99 1019.32 1019.61 1019.86 1020.04 1020.16 1020.22 1020.25 1020.25 1020.24 1020.25 1020.28 1020.34 1020.42 1020.53 1020.66 1020.80 1020.95
1012.20 1012.64 1013.11 1013.57 1014.02 1014.43 1014.79 1015.11 1015.40 1015.68 1015.94 1016.22 1016.49 1016.76 1017.01 1017.24 1017.43 1017.58 1017.71 1017.84 1017.98 1018.15 1018.38 1018.65 1018.98 1019.32 1019.66 1019.97 1020.23 1020.41 1020.51 1020.54 1020.51 1020.45 1020.38 1020.32 1020.30 1020.32 1020.38 1020.49 1020.63 1020.79 1020.96
1011.93 1012.35 1012.81 1013.28 1013.76 1014.21 1014.63 1015.01 1015.35 1015.66 1015.94 1016.21 1016.47 1016.72 1016.95 1017.17 1017.37 1017.55 1017.72 1017.90 1018.09 1018.31 1018.57 1018.87 1019.21 1019.56 1019.91 1020.22 1020.48 1020.66 1020.76 1020.77 1020.72 1020.61 1020.49 1020.38 1020.30 1020.27 1020.31 1020.41 1020.55 1020.71 1020.89
1011.63 1012.03 1012.47 1012.94 1013.43 1013.92 1014.40 1014.84 1015.24 1015.58 1015.89 1016.16 1016.40 1016.63 1016.85 1017.06 1017.28 1017.50 1017.72 1017.95 1018.18 1018.44 1018.72 1019.03 1019.36 1019.71 1020.05 1020.36 1020.62 1020.81 1020.92 1020.94 1020.88 1020.76 1020.61 1020.46 1020.34 1020.28 1020.28 1020.34 1020.46 1020.62 1020.79
1011.26 1011.63 1012.05 1012.53 1013.04 1013.57 1014.10 1014.60 1015.05 1015.44 1015.77 1016.05 1016.28 1016.50 1016.71 1016.94 1017.18 1017.43 1017.70 1017.97 1018.26 1018.54 1018.84 1019.14 1019.45 1019.77 1020.09 1020.40 1020.66 1020.87 1021.01 1021.06 1021.03 1020.93 1020.78 1020.62 1020.47 1020.36 1020.32 1020.34 1020.42 1020.55 1020.71
1010.79 1011.15 1011.56 1012.04 1012.57 1013.15 1013.73 1014.29 1014.80 1015.24 1015.60 1015.89 1016.12 1016.34 1016.55 1016.79 1017.05 1017.34 1017.66 1017.98 1018.30 1018.61 1018.91 1019.20 1019.49 1019.79 1020.08 1020.37 1020.65 1020.88 1021.06 1021.16 1021.18 1021.12 1021.00 1020.85 1020.68 1020.55 1020.45 1020.42 1020.45 1020.54 1020.66
1010.19 1010.56 1010.98 1011.47 1012.04 1012.66 1013.30 1013.92 1014.48 1014.97 1015.36 1015.67 1015.91 1016.13 1016.35 1016.60 1016.89 1017.22 1017.58 1017.94 1018.30 1018.64 1018.95 1019.23 1019.50 1019.77 1020.04 1020.32 1020.60 1020.86 1021.08 1021.24 1021.33 1021.33 1021.25 1021.11 1020.95 1020.78 1020.65 1020.56 1020.53 1020.56 1020.64
1009.48 1009.88 1010.33 1010.86 1011.46 1012.12 1012.81 1013.49 1014.10 1014.63 1015.06 1015.39 1015.64 1015.87 1016.09 1016.36 1016.67 1017.03 1017.44 1017.85 1018.25 1018.62 1018.94 1019.22 1019.48 1019.72 1019.98 1020.24 1020.53 1020.81 1021.07 1021.28 1021.43 1021.48 1021.45 1021.35 1021.19 1021.01 1020.85 1020.71 1020.63 1020.60 1020.62
1008.70 1009.15 1009.65 1010.22 1010.85 1011.56 1012.29 1013.01 1013.67 1014.24 1014.69 1015.04 1015.31 1015.54 1015.78 1016.05 1016.39 1016.78 1017.22 1017.67 1018.12 1018.52 1018.86 1019.16 1019.41 1019.65 1019.89 1020.14 1020.42 1020.71 1020.99 1021.24 1021.43 1021.53 1021.55 1021.48 1021.34 1021.17 1020.98 1020.82 1020.69 1020.61 1020.59
1007.90 1008.42 1008.97 1009.57 1010.25 1010.98 1011.75 1012.50 1013.19 1013.78 1014.26 1014.63 1014.91 1015.16 1015.40 1015.68 1016.03 1016.45 1016.91 1017.41 1017.89 1018.33 1018.71 1019.03 1019.30 1019.53 1019.76 1020.00 1020.26 1020.54 1020.83 1021.09 1021.30 1021.44 1021.50 1021.46 1021.36 1021.20 1021.02 1020.84 1020.69 1020.58 1020.52
Thickness
5775 5778 5778 5778 5778 5778 5778 5778 5778 5777 5777 5776 5775 5774 5773 5772 5771 5770 5770 5768 5767 5766 5765 5764 5762 5761 5760 5758 5757 5756 5755 5753 5752 5750 5748 5746 5744 5743 5741 5739 5737 5735 5734
5779 5778 5778 5777 5776 5776 5776 5776 5776 5775 5775 5774 5773 5772 5771 5770 5769 5768 5767 5766 5765 5764 5763 5761 5760 5758 5757 5756 5755 5754 5753 5751 5749 5747 5746 5744 5742 5740 5739 5737 5735 5733 5731
5780 5778 5777 5776 5775 5774 5774 5774 5774 5773 5772 5771 5770 5770 5769 5768 5767 5766 5765 5764 5763 5762 5761 5759 5758 5757 5755 5754 5753 5751 5750 5749 5746 5745 5743 5741 5740 5738 5737 5735 5733 5731 5729
5780 5778 5776 5775 5773 5773 5772 5772 5771 5771 5770 5769 5768 5767 5767 5766 5765 5764 5763 5762 5760 5759 5758 5757 5756 5755 5753 5752 5750 5749 5747 5746 5744 5742 5740 5739 5738 5736 5735 5733 5731 5729 5727
5779 5777 5775 5773 5772 5771 5770 5769 5769 5768 5768 5767 5766 5765 5764 5763 5763 5762 5761 5759 5758 5757 5756 5755 5754 5752 5751 5749 5748 5746 5745 5743 5741 5739 5738 5737 5735 5734 5732 5730 5729 5727 5725
5777 5775 5773 5772 5770 5769 5768 5767 5766 5766 5765 5764 5763 5763 5762 5761 5760 5759 5758 5757 5756 5755 5754 5752 5751 5750 5749 5747 5746 5744 5743 5741 5739 5737 5735 5734 5733 5731 5730 5728 5726 5724 5723
5775 5774 5772 5770 5769 5767 5766 5765 5764 5764 5763 5762 5761 5761 5760 5759 5758 5757 5756 5755 5754 5753 5752 5750 5749 5748 5746 5745 5744 5742 5740 5738 5737 5734 5733 5732 5730 5729 5727 5726 5724 5722 5720
5774 5772 5770 5768 5767 5766 5765 5763 5762 5762 5761 5760 5759 5758 5757 5756 5755 5755 5754 5753 5752 5751 5750 5748 5747 5746 5744 5743 5742 5740 5739 5737 5734 5732 5731 5729 5728 5727 5725 5724 5722 5720 5718
5772 5770 5769 5767 5766 5764 5763 5762 5760 5760 5759 5758 5757 5756 5755 5754 5754 5753 5752 5751 5750 5749 5748 5747 5746 5744 5743 5741 5740 5739 5737 5735 5733 5731 5729 5727 5726 5725 5723 5722 5720 5718 5717
5770 5769 5767 5765 5764 5763 5761 5760 5759 5758 5757 5756 5756 5755 5754 5753 5752 5751 5750 5749 5748 5748 5747 5745 5744 5743 5741 5740 5739 5737 5735 5733 5731 5729 5728 5726 5725 5723 5722 5720 5719 5717 5715
5767 5767 5765 5764 5762 5761 5760 5759 5758 5757 5756 5755 5754 5753 5752 5751 5750 5749 5748 5748 5747 5746 5745 5744 5742 5741 5740 5739 5738 5736 5734 5732 5730 5728 5726 5725 5724 5722 5721 5719 5718 5716 5714
5765 5765 5764 5763 5761 5760 5759 5757 5756 5755 5754 5753 5752 5751 5750 5749 5748 5747 5747 5746 5745 5744 5743 5742 5741 5740 5739 5738 5736 5734 5732 5730 5729 5727 5726 5724 5723 5721 5720 5718 5717 5715 5713
5768 5766 5764 5762 5761 5759 5757 5756 5754 5753 5752 5750 5750 5749 5748 5747 5746 5745 5745 5744 5743 5742 5742 5740 5739 5738 5738 5737 5735 5733 5731 5729 5728 5726 5725 5723 5722 5720 5719 5717 5716 5714 5712
5768 5766 5764 5762 5760 5758 5756 5755 5753 5751 5750 5749 5748 5747 5746 5745 5744 5743 5742 5742 5741 5741 5740 5739 5738 5737 5737 5736 5734 5732 5730 5728 5727 5726 5724 5723 5721 5720 5718 5717 5715 5713 5711
5769 5767 5765 5763 5760 5757 5755 5753 5752 5750 5749 5748 5747 5746 5745 5744 5743 5742 5741 5740 5740 5739 5739 5738 5737 5736 5735 5734 5733 5732 5730 5728 5726 5725 5723 5722 5721 5719 5718 5716 5715 5713 5711
5771 5769 5766 5763 5761 5758 5755 5753 5752 5750 5748 5747 5746 5745 5744 5743 5742 5741 5740 5739 5739 5739 5738 5737 5736 5735 5734 5733 5732 5731 5729 5728 5726 5724 5723 5722 5721 5719 5718 5716 5715 5713 5712
5774 5771 5767 5765 5762 5758 5756 5753 5752 5750 5748 5746 5745 5744 5743 5742 5741 5740 5739 5739 5738 5738 5737 5736 5735 5734 5733 5732 5731 5730 5729 5727 5726 5724 5723 5721 5720 5719 5718 5717 5715 5714 5712
5777 5772 5769 5767 5763 5759 5756 5754 5751 5749 5748 5746 5745 5744 5743 5742 5741 5739 5739 5738 5738 5737 5736 5735 5734 5732 5731 5730 5729 5729 5728 5726 5725 5724 5723 5722 5720 5719 5718 5717 5716 5714 5713
5780 5775 5771 5768 5765 5761 5758 5754 5751 5749 5747 5746 5745 5744 5743 5742 5740 5739 5738 5738 5737 5736 5735 5735 5733 5732 5730 5729 5728 5727 5726 5726 5725 5724 5723 5722 5721 5719 5718 5717 5716 5715 5714
5781 5777 5773 5770 5766 5762 5758 5754 5750 5748 5747 5746 5745 5744 5743 5742 5740 5739 5738 5737 5736 5735 5734 5734 5732 5731 5729 5728 5728 5726 5725 5725 5725 5724 5723 5722 5721 5720 5719 5718 5716 5716 5715
5781 5777 5773 5769 5766 5762 5758 5753 5749 5746 5746 5746 5745 5745 5743 5742 5740 5739 5738 5737 5736 5734 5734 5733 5731 5730 5727 5727 5724 5722 5723 5724 5724 5724 5723 5723 5722 5721 5719 5718 5717 5716 5715
5783 5779 5775 5772 5768 5765 5762 5758 5754 5751 5748 5748 5746 5744 5743 5742 5741 5739 5738 5737 5735 5734 5733 5732 5731 5728 5727 5726 5723 5718 5715 5718 5722 5725 5724 5723 5723 5722 5720 5719 5718 5717 5716
5785 5782 5779 5775 5771 5767 5764 5758 5754 5750 5747 5745 5744 5743 5743 5742 5741 5739 5738 5737 5736 5734 5732 5732 5731 5729 5726 5725 5725 5720 5714 5711 5716 5721 5724 5724 5724 5723 5722 5721 5720 5719 5717
5789 5785 5781 5777 5773 5769 5765 5760 5755 5750 5746 5746 5746 5744 5743 5742 5741 5739 5738 5737 5736 5734 5733 5732 5731 5730 5728 5724 5723 5723 5721 5719 5715 5714 5720 5724 5724 5724 5724 5723 5722 5721 5719
5790 5785 5781 5777 5773 5770 5767 5763 5757 5753 5750 5748 5746 5743 5742 5742 5741 5739 5738 5737 5735 5734 5733 5732 5731 5730 5729 5727 5724 5722 5720 5719 5718 5715 5714 5718 5721 5724 5725 5724 5723 5722 5721
5790 5785 5780 5776 5772 5770 5766 5763 5759 5754 5750 5746 5744 5742 5741 5740 5739 5739 5738 5737 5735 5734 5733 5733 5732 5730 5729 5728 5726 5724 5722 5719 5717 5716 5714 5715 5717 5721 5724 5725 5724 5724 5722